When you browse on this site, cookies collect data to enhance your experience and personalize the content and advertising you see.
Visit our Privacy Policy to learn more. By continuing to use the site, you agree to this use of cookies and data.
  • In Hungary
  • List of Countries
  • For 7 days
  • Water Temperature
  • Satellite Maps
  • Weather Map
  • News
  • Weather Widgets
  • user-avatar
    Login

    Hourly Weather Mbabane

    Today, 13 December, Thursday

    Time Temperature Precipitation Wind Pressure Humidity
    00:00 +18°C° 0 mm 1 mps 646 mmHg 78%
    01:00 +16°C° 0 mm 1 mps 647 mmHg 79%
    02:00 +16°C° 0 mm 1 mps 647 mmHg 80%
    03:00 +15°C° 0 mm 1 mps 647 mmHg 82%
    04:00 +15°C° 0 mm 1 mps 647 mmHg 84%
    05:00 +15°C° 0 mm 1 mps 647 mmHg 86%
    06:00 +18°C° 0 mm 1 mps 648 mmHg 80%
    07:00 +19°C° 0 mm 2 mps 649 mmHg 73%
    08:00 +21°C° 0 mm 2 mps 651 mmHg 66%
    09:00 +23°C° 0 mm 2 mps 651 mmHg 60%
    10:00 +25°C° 0 mm 2 mps 651 mmHg 55%
    11:00 +27°C° 0 mm 2 mps 652 mmHg 49%
    12:00 +27°C° 0 mm 2 mps 652 mmHg 47%
    13:00 +28°C° 0 mm 3 mps 651 mmHg 44%
    14:00 +29°C° 0 mm 3 mps 651 mmHg 42%
    15:00 +28°C° 0 mm 3 mps 651 mmHg 46%
    16:00 +27°C° 0 mm 3 mps 650 mmHg 50%
    17:00 +26°C° 0 mm 3 mps 650 mmHg 54%
    18:00 +24°C° 0 mm 2 mps 650 mmHg 63%
    19:00 +21°C° 0 mm 2 mps 650 mmHg 72%
    20:00 +19°C° 0 mm 2 mps 650 mmHg 82%
    21:00 +18°C° 0 mm 2 mps 650 mmHg 85%
    22:00 +19°C° 0 mm 1 mps 651 mmHg 89%
    23:00 +18°C° 0 mm 1 mps 651 mmHg 92%

    Tomorrow, 14 December, Friday

    Time Temperature Precipitation Wind Pressure Humidity
    00:00 +18°C° 0.1 mm 1 mps 651 mmHg 93%
    01:00 +18°C° 0.1 mm 1 mps 651 mmHg 94%
    02:00 +18°C° 0.1 mm 1 mps 651 mmHg 94%
    03:00 +18°C° 0.1 mm 1 mps 651 mmHg 95%
    04:00 +18°C° 0.1 mm 1 mps 651 mmHg 95%
    05:00 +16°C° 0.1 mm 1 mps 651 mmHg 96%
    06:00 +18°C° 0.1 mm 1 mps 651 mmHg 92%
    07:00 +19°C° 0.1 mm 1 mps 652 mmHg 88%
    08:00 +19°C° 0.1 mm 1 mps 652 mmHg 84%
    09:00 +21°C° 0 mm 1 mps 653 mmHg 76%
    10:00 +23°C° 0 mm 1 mps 653 mmHg 68%
    11:00 +24°C° 0 mm 1 mps 653 mmHg 61%
    12:00 +26°C° 0 mm 2 mps 653 mmHg 55%
    13:00 +27°C° 0 mm 2 mps 653 mmHg 50%
    14:00 +29°C° 0 mm 2 mps 652 mmHg 44%
    15:00 +28°C° 0.1 mm 3 mps 652 mmHg 47%
    16:00 +27°C° 0.1 mm 3 mps 651 mmHg 49%
    17:00 +26°C° 0.1 mm 3 mps 650 mmHg 52%
    18:00 +24°C° 0.5 mm 2 mps 650 mmHg 61%
    19:00 +21°C° 0.5 mm 2 mps 650 mmHg 70%
    20:00 +20°C° 0.5 mm 1 mps 650 mmHg 79%
    21:00 +19°C° 0 mm 1 mps 651 mmHg 83%
    22:00 +19°C° 0 mm 1 mps 651 mmHg 86%
    23:00 +16°C° 0 mm 0 mps 651 mmHg 89%

    Day after tomorrow, 15 December, Saturday

    Time Temperature Precipitation Wind Pressure Humidity
    00:00 +18°C° 0 mm 1 mps 650 mmHg 90%
    01:00 +16°C° 0 mm 1 mps 650 mmHg 92%
    02:00 +16°C° 0 mm 1 mps 649 mmHg 94%
    03:00 +16°C° 0 mm 1 mps 649 mmHg 94%
    04:00 +16°C° 0 mm 1 mps 650 mmHg 94%
    05:00 +16°C° 0 mm 1 mps 650 mmHg 94%
    06:00 +19°C° 0 mm 1 mps 650 mmHg 83%
    07:00 +21°C° 0 mm 1 mps 651 mmHg 73%
    08:00 +23°C° 0 mm 1 mps 652 mmHg 63%
    09:00 +25°C° 0 mm 2 mps 652 mmHg 54%
    10:00 +28°C° 0 mm 2 mps 653 mmHg 44%
    11:00 +30°C° 0 mm 2 mps 653 mmHg 35%
    12:00 +31°C° 0 mm 2 mps 652 mmHg 32%
    13:00 +32°C° 0 mm 2 mps 652 mmHg 29%
    14:00 +32°C° 0 mm 2 mps 651 mmHg 27%
    15:00 +32°C° 0 mm 2 mps 651 mmHg 28%
    16:00 +31°C° 0 mm 2 mps 650 mmHg 30%
    17:00 +31°C° 0 mm 3 mps 649 mmHg 31%
    18:00 +28°C° 0 mm 2 mps 649 mmHg 38%
    19:00 +25°C° 0 mm 1 mps 649 mmHg 46%
    20:00 +22°C° 0 mm 1 mps 649 mmHg 53%
    21:00 +22°C° 0 mm 1 mps 650 mmHg 59%
    22:00 +21°C° 0 mm 1 mps 650 mmHg 64%
    23:00 +20°C° 0 mm 1 mps 650 mmHg 69%

    16 December, Sunday

    Time Temperature Precipitation Wind Pressure Humidity
    00:00 +19°C° 0 mm 1 mps 650 mmHg 73%
    01:00 +19°C° 0 mm 1 mps 650 mmHg 76%
    02:00 +17°C° 0 mm 0 mps 649 mmHg 80%
    03:00 +18°C° 0 mm 1 mps 649 mmHg 82%
    04:00 +18°C° 0 mm 1 mps 649 mmHg 84%
    05:00 +16°C° 0 mm 1 mps 649 mmHg 86%
    06:00 +20°C° 0 mm 1 mps 650 mmHg 77%
    07:00 +22°C° 0 mm 1 mps 651 mmHg 69%
    08:00 +24°C° 0 mm 1 mps 652 mmHg 60%
    09:00 +26°C° 0 mm 1 mps 652 mmHg 53%
    10:00 +29°C° 0 mm 1 mps 652 mmHg 46%
    11:00 +31°C° 0 mm 1 mps 652 mmHg 39%
    12:00 +31°C° 0 mm 2 mps 652 mmHg 37%
    13:00 +32°C° 0 mm 2 mps 651 mmHg 35%
    14:00 +33°C° 0 mm 3 mps 650 mmHg 33%
    15:00 +31°C° 0 mm 3 mps 650 mmHg 36%
    16:00 +30°C° 0 mm 3 mps 649 mmHg 38%
    17:00 +29°C° 0 mm 3 mps 649 mmHg 40%
    18:00 +27°C° 0.5 mm 2 mps 649 mmHg 50%
    19:00 +24°C° 0.5 mm 2 mps 649 mmHg 60%
    20:00 +22°C° 0.5 mm 1 mps 649 mmHg 70%
    21:00 +21°C° 0 mm 1 mps 649 mmHg 72%
    22:00 +21°C° 0 mm 1 mps 649 mmHg 74%
    23:00 +20°C° 0 mm 1 mps 649 mmHg 76%

    17 December, Monday

    Time Temperature Precipitation Wind Pressure Humidity
    00:00 +20°C° 0 mm 1 mps 649 mmHg 78%
    01:00 +19°C° 0 mm 1 mps 648 mmHg 80%
    02:00 +19°C° 0 mm 1 mps 648 mmHg 82%
    03:00 +19°C° 0 mm 1 mps 649 mmHg 83%
    04:00 +17°C° 0 mm 0 mps 649 mmHg 84%
    05:00 +17°C° 0 mm 0 mps 649 mmHg 85%
    06:00 +20°C° 0 mm 1 mps 650 mmHg 81%
    07:00 +21°C° 0 mm 1 mps 650 mmHg 76%
    08:00 +22°C° 0 mm 1 mps 651 mmHg 72%
    09:00 +24°C° 0 mm 1 mps 651 mmHg 62%
    10:00 +26°C° 0 mm 1 mps 651 mmHg 52%
    11:00 +28°C° 0 mm 1 mps 651 mmHg 41%
    12:00 +30°C° 0 mm 1 mps 651 mmHg 36%
    13:00 +31°C° 0 mm 2 mps 651 mmHg 31%
    14:00 +34°C° 0 mm 2 mps 651 mmHg 26%
    15:00 +32°C° 0 mm 2 mps 650 mmHg 27%
    16:00 +31°C° 0 mm 2 mps 649 mmHg 29%
    17:00 +30°C° 0 mm 3 mps 649 mmHg 31%
    18:00 +27°C° 0 mm 2 mps 649 mmHg 40%
    19:00 +25°C° 0 mm 2 mps 649 mmHg 49%
    20:00 +22°C° 0 mm 1 mps 649 mmHg 57%
    21:00 +21°C° 0 mm 1 mps 649 mmHg 63%
    22:00 +20°C° 0 mm 1 mps 649 mmHg 69%
    23:00 +19°C° 0 mm 1 mps 649 mmHg 75%

    18 December, Tuesday

    Time Temperature Precipitation Wind Pressure Humidity
    00:00 +19°C° 0 mm 1 mps 649 mmHg 77%
    01:00 +19°C° 0 mm 1 mps 648 mmHg 78%
    02:00 +19°C° 0 mm 1 mps 648 mmHg 79%
    03:00 +18°C° 0 mm 1 mps 648 mmHg 79%
    04:00 +18°C° 0 mm 1 mps 648 mmHg 78%
    05:00 +18°C° 0 mm 1 mps 648 mmHg 78%
    06:00 +21°C° 0 mm 1 mps 649 mmHg 68%
    07:00 +23°C° 0 mm 1 mps 650 mmHg 57%
    08:00 +26°C° 0 mm 1 mps 650 mmHg 47%
    09:00 +28°C° 0 mm 1 mps 651 mmHg 40%
    10:00 +31°C° 0 mm 1 mps 651 mmHg 33%
    11:00 +34°C° 0 mm 2 mps 651 mmHg 25%
    12:00 +34°C° 0 mm 2 mps 650 mmHg 25%
    13:00 +34°C° 0 mm 2 mps 649 mmHg 24%
    14:00 +34°C° 0 mm 2 mps 648 mmHg 24%
    15:00 +34°C° 0 mm 3 mps 648 mmHg 25%
    16:00 +33°C° 0 mm 3 mps 647 mmHg 26%
    17:00 +33°C° 0 mm 3 mps 646 mmHg 26%
    18:00 +29°C° 0 mm 3 mps 646 mmHg 31%
    19:00 +27°C° 0 mm 2 mps 646 mmHg 37%
    20:00 +25°C° 0 mm 2 mps 646 mmHg 42%
    21:00 +24°C° 0 mm 2 mps 646 mmHg 44%
    22:00 +23°C° 0 mm 1 mps 646 mmHg 47%
    23:00 +22°C° 0 mm 1 mps 647 mmHg 49%
    Show more